Regional Weather Roundup
Issued by NWS Sterling, VA

Home | Current Version | Previous Version | Text Only | Print | Product List | Glossary On
Versions: 1 2 3 4 5 6 7 8 9 10 11 12 13 14 15 16 17 18 19 20 21 22 23 24 25 26 27
000
ASUS41 KLWX 110910
RWRLWX

REGIONAL WEATHER ROUNDUP
NATIONAL WEATHER SERVICE BALTIMORE MD/WASHINGTON DC
400 AM EST SUN DEC 11 2016

Note: "FAIR" indicates few or no clouds below 12,000 feet
with no significant weather and/or obstructions to visibility.
 TC=TEMPERATURE CELSIUS

 * =Non NWS site. Station does not report precipitation (e.g. rain,
    snow, etc.), thunder, or fog.

DCZ001-MDZ009-015-VAZ040>042-051-053>054-111000-
WASHINGTON METRO

CITY           SKY/WX    TMP DP  RH WIND       PRES   REMARKS
WASHINGTON NAT CLOUDY    30  14  51 NW3       30.53F
DULLES         CLOUDY    26  16  65 SW3       30.52S
ANDREWS AFB    CLOUDY    26  20  80 S1        30.50F
QUANTICO       CLOUDY    28  21  75 NW5       30.55F
COLLEGE PARK*  CLOUDY    27  19  74 CALM      30.52F
LEESBURG*      CLOUDY    28  21  74 SW3       30.52S
GAITHERSBURG*  CLOUDY    25  16  68 CALM      30.54R

$$

MDZ006>007-011-014-111000-
BALTIMORE METRO

CITY           SKY/WX    TMP DP  RH WIND       PRES   REMARKS
BWI AIRPORT    CLOUDY    27  16  63 CALM      30.52S
MD SCIENCE CTR   N/A     30  14  51 MISG      30.52F
ANNAPOLIS      CLOUDY    30  14  51 CALM      30.53F
FORT MEADE*    CLOUDY    27  21  80 CALM      30.55S

$$

MDZ012-015-019>023-111000-
MARYLAND EASTERN SHORE

CITY           SKY/WX    TMP DP  RH WIND       PRES   REMARKS
OCEAN CITY     CLOUDY    27  17  66 NW6       30.54S
SALISBURY      CLOUDY    25  20  81 CALM      30.54R
BAY BRIDGE AP* CLOUDY    30  18  59 MISG      30.53S
CAMBRIDGE*     CLOUDY    27  19  74 CALM      30.53F
EASTON*        CLOUDY    28  19  71 CALM      30.57S

$$

MDZ017>025-111000-
SOUTHERN MARYLAND

CITY           SKY/WX    TMP DP  RH WIND       PRES   REMARKS
PATUXENT RIVER CLOUDY    32  18  56 N7        30.54S
ST INIGOES     CLOUDY    31  18  58 CALM      30.53S
LEONARDTOWN*   CLOUDY    28  19  69 CALM      30.54F

$$

MDZ003>005-111000-
NORTH CENTRAL MARYLAND

CITY           SKY/WX    TMP DP  RH WIND       PRES   REMARKS
FREDERICK*     CLOUDY    27  19  74 S3        30.54R
HAGERSTOWN APT   N/A     26  13  57 S3        30.48R
WESTMINSTER*     N/A     23  16  74 CALM      30.47R

$$

MDZ501>502-111000-
WESTERN MARYLAND

CITY           SKY/WX    TMP DP  RH WIND       PRES   REMARKS
OAKLAND*         N/A     16  14  93 W5        30.31R FOG
CUMBERLAND*    NOT AVBL

$$

VAZ025>031-111000-
SHENANDOAH VALLEY

CITY           SKY/WX    TMP DP  RH WIND       PRES   REMARKS
WINCHESTER*    CLOUDY    25  18  74 CALM      30.48S
FRONT ROYAL*   CLOUDY    25  19  80 CALM      30.47F
LURAY*         FAIR      27  21  80 CALM      30.45F
NEW MARKET*    FAIR      24  18  77 CALM      30.44F
STAUNTON*      CLOUDY    23  17  78 CALM      30.45F
WAYNESBORO*    FAIR      24  11  57 SE8       30.41F WCI  15

$$

WVZ021-048>050-054>055-111000-
EASTERN WEST VIRGINIA PANHANDLE

CITY           SKY/WX    TMP DP  RH WIND       PRES   REMARKS
MARTINSBURG    CLOUDY    25  16  68 SW3       30.49S
PETERSBURG*    CLOUDY    24  18  76 CALM      30.46S

$$

VAZ036>039-050-111000-
CENTRAL FOOTHILLS

CITY           SKY/WX    TMP DP  RH WIND       PRES   REMARKS
CHARLOTTESVILL CLOUDY    28  16  60 CALM      30.49F
CULPEPER*      PTCLDY    27  19  70 CALM      30.53F
ORANGE*          N/A     28  19  69 CALM      30.53S
GORDONSVILLE*  FAIR      25  20  83 CALM      30.51S
WARRENTON*     CLOUDY    26  18  70 CALM      30.51S

$$

VAZ055>057-111000-
NORTH AND CENTRAL PIEDMONT

CITY           SKY/WX    TMP DP  RH WIND       PRES   REMARKS
FREDERICKSBRG* PTCLDY    28  20  72 CALM      30.53F
STAFFORD*      CLOUDY    25  23  91 CALM      30.57S

$$

NCZ024-NYZ072-PAZ021-071-VAZ022-071-111000-
OTHER REGIONAL OBSERVATIONS

CITY           SKY/WX    TMP DP  RH WIND       PRES   REMARKS
NEW YORK CITY  PTCLDY    28  15  58 NW3       30.50S
PHILADELPHIA   CLOUDY    29  14  53 NW3       30.52S
PITTSBURGH     LGT SNOW  23  20  88 S6        30.42S FOG
ROANOKE        CLOUDY    29  17  61 CALM      30.44F
RICHMOND       CLOUDY    29  17  61 CALM      30.53F
RALEIGH        PTCLDY    25  17  72 CALM      30.50F

$$

ANZ530>537-111000-
MARINE OBSERVATIONS

STATION/POSITION TIME  TEMP    WIND        PRES
                       AIR SEA DIR/SP/G
                 (UTC) (F)     (DEG/KT/KT) (MB)
THOMAS PT LIGHT  0900   31 45  310/  5/  6   N/A
BALT KEY BRIDGE  0836   29     220/  6/  6 1033.8F
COVE POINT       0836   31     320/  4/  7 1034.4F
LEWISETTA        0836   33 42   20/  4/  4 1033.8S
SOLOMONS ISLAND  0836   32 47  340/  6/  7   N/A
PINEY POINT      0848           30/  4/  5   N/A

$$





USA.gov is the U.S. government's official web portal to all federal, state and local government web resources and services.